CamptonHillsWeather.com

Find the Weather for any City, State  
or Zipcode, or Country:

Campton Hills, IL Weather
Local Radar

Local Radar

Graphs, Details
Graphs and Gauges
Detailed Weather
Detailed Reports
Ajax Version (old)
Central Kane Co Summary
Davis Current Weather Graphs
Davis 24 Hour Weather History

CW3778 Data

Weather Underground
Maps
Temperature
Heat Index
Windchill
Humidity
Radar
Dew Point
Wind
Visibility
Visible Satellite
Satellite
Fronts
Snow Depth
Jet Stream
Flight Rules
Forecast Maps
Temperature Forecast
Maximum Temperature Forecast
Minimum Temperature Forecast
Dewpoint Forecast
Prevalent Weather
12Hr Probability of Precip.
Sky Cover
Health Maps
UV Forecast
Air Quality
Peak Air Quality Index
Weather Station
Davis Instruments Vantage Pro
Current Conditions [Select Refresh to Update]

Updated: 4:17am on 4/20/14

(location)
Currently:
47.8F

Clear
Clear

High: 54.5 F< 
(12:00am
Low: 47.8 F 
(4:13am)
Wind: S 2 mph
Light Air
Gust: 4 mph
Today's High Wind: 6 mph (12:19am)
Humidity: 62%
Pressure: 30.21 in  (Steady
Pressure Rate: -0.009 in/hr
Dew Point: 35.4F
Wind Chill: 47.8 F
Heat Index (feels like): 49.8 F
Comfort Level: Cool
Temperature Rate:  -1.51F/hr
 
5 Day Forecast
 
Sun Mon Tue Wed Thu
Clear Clear Clear Clear Clear
Partly Cloudy Rain Partly Cloudy Clear Partly Cloudy
75 75 57 63 68
55 46 39 39 52

Records and Normals
 
Temperature Forecast Normal Record
High 75 63 77
(2001)
Low 55 39 27
(2013)
 
Links
 
 
Weather Advisories
No Advisories
Full Advisory Text...
Weather Map

Web Cam

Almanac
 
Sunrise:  
6:04am
Moonrise: 
12:22am

Moon Phase:
72%

Sunset: 
7:39pm
Moonset:  
10:24am
 Star Chart...
Rainfall Totals
Hourly Rain 0.00 in
Daily Rain: 0.00 in
Monthly Rain: 1.21 in
Yearly Rain: 4.83 in
Normal Rain, month to date: 1.11 in
Normal Rain, year to date: 2.78 in
Link to Village of Campton Hills Map

Link to Counties of Illinois Map

Local Weather Exchange Network
Station ID City 
(Click for Map Location)
Neighborhood 
(Click for History)
Last Update (Date & Time) Temperature
 ()
Dew
Point ()
Humidity 
(%)
Wind 
(mph)
from the Wind Gust 
(mph) 
Pressure(in) Hourly
Rain(in)
KILGENEV5 Geneva meso_neigh1 04/20 04:11:47 48.7 35.0 58 5 ENE 7 30.14 0.00
KILSOUTH6 South Elgin Thornwood 04/20 04:06:08 45.9 34.0 64 1 SE 0 30.10 0.00
KILCAMPT3 Campton Hills Campton Hills 04/20 04:12:16 48.9 32.0 51 3 SSW 5 30.22 0.00
KILGENEV6 Geneva Dover Ridge 04/20 04:12:16 49.2 34.0 56 1 South 1 30.19 0.00
KILSTCHA8 St. Charles Ronzheimer Ave. & S. Tyler Rd. 04/20 04:12:16 48.3 34.0 58 4 SSW 7 30.19 0.00
KILGENEV3 Geneva Mill Creek (NE) 04/20 04:12:14 48.4 35.0 59 0 SE 3 30.24 0.00
KILSTCHA1 St Charles CamptonHillsWeather.com Central Kane County 04/20 04:12:16 47.8 35.0 62 0 South 4 30.21 0.00
KILELGIN13 Elgin Creek Side 04/20 04:12:16 48.6 34.0 57 0 South 0 29.30 0.00
KILSOUTH5 South Elgin Concord Park 04/20 04:06:52 44.8 34.0 66 0 SSE 0 29.98 0.00
KILGENEV2 Geneva Mill Creek 04/20 04:03:55 48.0 34.0 58 1 ESE 4 30.16 0.00
KILBATAV1 Batavia Tri-Cities on the Fox River 04/20 04:10:47 49.5 31.0 49 3 SSE 11 30.17 0.00
KILELBUR5 Elburn Prairie Highlands 04/20 04:10:15 47.5 37.0 67 0 ESE 2 30.20 0.00
KILBATAV3 Batavia West Batavia 04/20 04:06:23 48.2 35.0 61 2 SSE 7 30.18 0.00
KILELBUR6 Elburn Columbine Square 04/20 04:03:39 45.8 35.0 66 0 ESE 1 30.16 0.00
KILBATAV5 Batavia Fermi National Accelerator Laboratory 04/20 04:03:15 49.0 34.0 56 6 SE 11 30.16 0.00
KILWESTC5 West Chicago THEBROWNHOUSE.ORG 04/20 04:12:15 44.3 28.0 53 0 SE 0 30.18 0.00
KILWESTC8 West Chicago Ingalton Hills Estates 04/20 04:12:15 47.0 37.0 69 0 SW 0 30.31 0.00
KILBARTL1 Bartlett Amber Grove KC9TVS 04/20 03:59:42 48.2 34.0 59 3 SE 7 30.26 0.00
KILNORTH11 North Aurora Waterford Oaks 04/20 04:12:14 48.9 35.0 59 4 SE 7 30.20 0.00
KILELGIN10 Elgin Wing Park 04/20 04:12:13 45.3 30.0 54 0 SE 0 29.39 0.00
MUP188 Elburn MesoWest ELBRN1 IL US UPR 04/20 03:15:00 47.0 0.0 0 0 North 0 0.00 0.00
KILCAROL5 Carol Stream Stonehenge Court 04/20 04:10:04 49.2 5.0 16 4 SSE 5 30.19 0.00
MUP431 West Chicago MesoWest WINFL1 IL US UPR 04/20 02:30:00 51.0 0.0 0 0 North 0 0.00 0.00
KILGILBE2 Gilberts Gilberts, IL 04/20 04:12:12 48.9 31.0 50 5 ESE 8 29.79 0.00
KILELGIN11 Elgin Trout Park 04/20 00:59:15 50.4 36.0 57 0 NE 2 30.26 0.00
KILWINFI3 Winfield Fredericksburg Farm 04/20 04:12:15 48.6 33.0 54 3 SE 4 30.13 0.00
KILWINFI2 Winfield Winfield Heights (SarahNet) 04/20 04:09:00 49.0 33.0 55 0 South 3 30.20 0.00
KILSLEEP3 Sleepy Hollow SLEEPY HOLLOW 04/20 04:12:16 45.4 34.0 65 0 SE 0 29.70 0.00
KILCAROL6 Carol Stream Merbach Ct 04/20 04:12:13 49.1 32.0 52 4 South 5 30.14 0.00
KILSLEEP2 Sleepy Hollow Sleepy Hollow Manor 04/20 04:10:50 40.5 35.0 80 0 South 0 30.14 0.00
KILWARRE2 Warrenville meso_neigh31 04/20 04:12:08 49.3 34.0 56 0 SSE 5 30.19 0.00
KILWARRE4 Warrenville Cerny Park 04/20 04:10:13 48.2 33.0 56 2 South 2 30.18 0.00
KILWHEAT5 Wheaton N9ABF - West Wheaton 04/20 04:05:19 48.3 33.0 57 4 SSE 0 30.18 0.00
KILSCHAU9 Schaumburg Schaumburg West 04/20 04:12:13 47.3 39.0 74 1 SE 4 30.23 0.00
KILEASTD2 East Dundee Rock Road Industrial Park 04/20 04:11:32 48.7 31.0 50 4 SE 9 29.25 0.00
KILCARPE6 Carpentersville Carpentersville 04/20 04:11:22 46.2 36.0 68 0 WSW 0 29.33 0.00
KDPA Chicago DuPage Official Station 04/20 03:52:00 43.0 33.0 68 8 South --- 30.21 ---
KARR Aurora Official Station 04/20 03:52:00 43.0 34.0 71 9 SE --- 30.21 ---
KDKB DeKalb Official Station 04/20 03:55:00 44.0 34.0 70 9 SE --- 30.21 ---
KORD Chicago Official Station 04/20 03:51:00 47.0 30.0 52 9 SSE --- 30.21 ---
Full Advisory Text
No Warnings

Ambient Weather and Weather Underground
 Never base important decisions on this or any weather information obtained from the Internet
Updated Automatically by Ambient Weather's Virtual Weather Station  V13.01